TimeEDT,TemperatureF,Dew PointF,Humidity,Sea Level PressureIn,VisibilityMPH,Wind Direction,Wind SpeedMPH,Gust SpeedMPH,PrecipitationIn,Events,Conditions,WindDirDegrees,DateUTC
12:51 AM,55.0,48.9,80,29.76,10.0,South,3.5,-,N/A,,Mostly Cloudy,180,2013-05-16 04:51:00
1:51 AM,61.0,48.0,62,29.76,10.0,Calm,Calm,-,N/A,,Overcast,0,2013-05-16 05:51:00
2:51 AM,61.0,48.9,64,29.77,10.0,NW,3.5,-,N/A,,Overcast,310,2013-05-16 06:51:00
3:51 AM,57.9,48.9,72,29.78,10.0,West,3.5,-,N/A,,Overcast,260,2013-05-16 07:51:00
4:51 AM,57.0,46.9,69,29.78,10.0,West,3.5,-,N/A,,Mostly Cloudy,270,2013-05-16 08:51:00
5:51 AM,54.0,46.9,77,29.81,10.0,Calm,Calm,-,N/A,,Scattered Clouds,0,2013-05-16 09:51:00
6:51 AM,55.0,48.0,77,29.82,10.0,SSW,3.5,-,N/A,,Scattered Clouds,210,2013-05-16 10:51:00
7:51 AM,61.0,50.0,67,29.85,10.0,WNW,4.6,-,N/A,,Scattered Clouds,290,2013-05-16 11:51:00
8:51 AM,66.0,48.9,54,29.86,10.0,NNW,3.5,-,N/A,,Scattered Clouds,340,2013-05-16 12:51:00
9:51 AM,70.0,48.0,46,29.88,10.0,NNW,5.8,-,N/A,,Partly Cloudy,330,2013-05-16 13:51:00
10:51 AM,73.0,44.1,35,29.89,10.0,WNW,5.8,-,N/A,,Partly Cloudy,300,2013-05-16 14:51:00
11:51 AM,75.0,39.0,27,29.90,10.0,NNW,11.5,-,N/A,,Scattered Clouds,330,2013-05-16 15:51:00
12:51 PM,75.9,39.9,27,29.89,10.0,North,6.9,-,N/A,,Scattered Clouds,360,2013-05-16 16:51:00
1:51 PM,78.1,39.9,25,29.88,10.0,WNW,9.2,17.3,N/A,,Scattered Clouds,290,2013-05-16 17:51:00
2:51 PM,79.0,39.0,24,29.89,10.0,NW,9.2,-,N/A,,Scattered Clouds,320,2013-05-16 18:51:00
3:51 PM,79.0,37.9,23,29.89,10.0,NNW,12.7,24.2,N/A,,Scattered Clouds,330,2013-05-16 19:51:00
4:51 PM,79.0,37.9,23,29.90,10.0,NNW,13.8,-,N/A,,Scattered Clouds,330,2013-05-16 20:51:00
5:51 PM,78.1,37.0,23,29.91,10.0,WNW,12.7,18.4,N/A,,Scattered Clouds,290,2013-05-16 21:51:00
6:51 PM,75.9,39.0,26,29.91,10.0,NNW,9.2,-,N/A,,Scattered Clouds,330,2013-05-16 22:51:00
7:51 PM,72.0,41.0,33,29.92,10.0,NNE,10.4,-,N/A,,Scattered Clouds,30,2013-05-16 23:51:00
8:51 PM,64.0,39.0,40,29.94,10.0,NE,5.8,-,N/A,,Scattered Clouds,40,2013-05-17 00:51:00
9:51 PM,57.0,41.0,55,29.96,10.0,ENE,4.6,-,N/A,,Clear,70,2013-05-17 01:51:00
10:51 PM,55.0,43.0,64,29.98,10.0,ENE,5.8,-,N/A,,Clear,60,2013-05-17 02:51:00
11:51 PM,53.1,43.0,69,29.99,10.0,Calm,Calm,-,N/A,,Scattered Clouds,0,2013-05-17 03:51:00